GW1838 Weather Reports


time (UTC)temp
C
wind
direction
speed
KPH
gust
KPH
rain 1hr
cm
rain 24hr
cm
rain mn
cm
humidity
%
barometer
mb
20260831074805 22 289 1.6 3.2 0.00 1.35 1.35 91 1017.4
20260831072805 22 289 1.6 4.8 0.00 1.35 1.35 91 1017.6
20260831071805 22 296 0.0 0.0 0.00 1.35 1.35 91 1017.8
20260831071307 22 296 0.0 0.0 0.00 1.35 1.35 91 1017.7
20260831070804 22 296 0.0 0.0 0.00 1.35 1.35 91 1017.8
20260831070305 21 292 0.0 3.2 0.00 1.35 1.35 91 1017.7
20260831063805 21 350 0.0 1.6 0.30 1.35 1.35 91 1017.6
20260831062805 21 350 1.6 3.2 0.38 1.35 1.35 91 1017.5
20260831060305 21 5 0.0 0.0 0.41 1.35 1.35 91 1017.9
20260831055306 21 5 0.0 4.8 0.41 1.35 1.35 90 1018.0
20260831054805 21 353 3.2 8.0 0.38 1.32 1.32 90 1018.1
20260831054305 22 270 4.8 16.1 0.48 1.24 1.24 90 1018.4
20260831053305 22 272 6.4 11.3 0.81 0.97 0.97 90 1018.5
20260831052805 22 278 3.2 9.7 0.97 0.97 0.97 90 1018.3
20260831052307 22 293 3.2 11.3 0.97 0.97 0.97 90 1018.2
20260831051306 22 334 8.0 19.3 0.97 0.97 0.97 90 1018.1
20260831050805 22 348 14.5 19.3 0.97 0.97 0.97 90 1018.1
20260831050305 22 15 11.3 19.3 0.94 0.94 0.94 90 1017.9
20260831045805 21 17 14.5 20.9 0.94 0.94 0.94 90 1018.0
20260831044805 22 28 19.3 29.0 0.94 0.94 0.94 89 1018.2
20260831044305 22 4 27.4 41.8 0.76 0.76 0.76 89 1018.3
20260831043805 22 348 41.8 53.1 0.51 0.51 0.51 88 1018.6
20260831042307 25 350 27.4 45.1 0.00 0.00 0.00 85 1018.6
20260831041805 25 258 8.0 19.3 0.00 0.00 0.00 86 1017.8
20260831035307 25 250 8.0 19.3 0.00 0.00 0.00 87 1017.4
20260831034804 25 244 8.0 16.1 0.00 0.00 0.00 86 1017.4
20260831034305 25 237 8.0 19.3 0.00 0.00 0.00 86 1017.5
20260831032806 25 240 11.3 19.3 0.00 0.00 0.00 86 1017.6
20260831032306 25 239 9.7 19.3 0.00 0.00 0.00 86 1017.6
20260831031805 25 231 9.7 22.5 0.00 0.00 0.00 86 1017.6
20260831031306 25 232 11.3 22.5 0.00 0.00 0.00 86 1017.6
20260831030805 25 232 9.7 24.1 0.00 0.00 0.00 86 1017.5
20260831030305 25 238 11.3 20.9 0.00 0.00 0.00 86 1017.5
20260831025805 25 237 12.9 22.5 0.00 0.00 0.00 86 1017.6
20260831024305 25 235 9.7 20.9 0.00 0.00 0.00 85 1017.5
20260831023305 25 233 9.7 19.3 0.00 0.00 0.00 85 1017.8
20260831022306 25 257 11.3 24.1 0.00 0.00 0.00 84 1018.0
20260831021305 25 234 16.1 25.7 0.00 0.00 0.00 84 1018.1
20260831015805 25 235 11.3 25.7 0.00 0.00 0.00 84 1018.3
20260831014805 25 230 12.9 22.5 0.00 0.00 0.00 84 1018.1
20260831013805 25 228 17.7 25.7 0.00 0.00 0.00 84 1018.1
20260831013305 25 237 11.3 24.1 0.00 0.00 0.00 84 1018.0
20260831012805 25 227 9.7 24.1 0.00 0.00 0.00 84 1018.0
20260831011805 25 235 14.5 32.2 0.00 0.00 0.00 84 1018.1
20260831005306 25 232 16.1 33.8 0.00 0.00 0.00 83 1018.2
20260831003805 25 235 9.7 22.5 0.00 0.00 0.00 83 1018.1
20260831003304 25 237 14.5 20.9 0.00 0.00 0.00 83 1018.1
20260831002306 25 233 14.5 25.7 0.00 0.00 0.00 83 1017.9
20260830235804 25 231 17.7 29.0 0.00 0.00 0.00 82 1017.8
20260830235306 25 227 11.3 25.7 0.00 0.00 0.00 82 1017.7
20260830234304 25 228 11.3 27.4 0.00 0.00 0.00 82 1017.6
20260830233805 25 233 14.5 25.7 0.00 0.00 0.00 82 1017.6
20260830233305 25 232 11.3 22.5 0.00 0.00 0.00 82 1017.6
20260830232306 25 238 11.3 25.7 0.00 0.00 0.00 82 1017.6
20260830231304 25 223 16.1 25.7 0.00 0.00 0.00 82 1017.7
20260830230805 25 231 9.7 20.9 0.00 0.00 0.00 82 1017.7
20260830230304 25 224 9.7 24.1 0.00 0.00 0.00 82 1017.8
20260830224804 26 221 12.9 24.1 0.00 0.00 0.00 81 1017.7
20260830223804 26 228 11.3 24.1 0.00 0.00 0.00 80 1017.6
20260830222306 26 223 12.9 25.7 0.00 0.00 0.00 80 1017.6
20260830221805 26 215 11.3 22.5 0.00 0.00 0.00 80 1017.6
20260830220805 25 225 12.9 25.7 0.00 0.00 0.00 81 1017.5
20260830213805 26 213 14.5 24.1 0.00 0.00 0.00 79 1017.7
20260830211805 26 230 14.5 25.7 0.00 0.00 0.00 78 1017.7
20260830210804 26 230 9.7 32.2 0.00 0.00 0.00 77 1017.7
20260830205306 27 223 14.5 29.0 0.00 0.00 0.00 76 1017.7
20260830203304 27 219 17.7 32.2 0.00 0.00 0.00 75 1017.9
20260830202306 27 220 19.3 33.8 0.00 0.00 0.00 75 1017.9
20260830201305 27 212 17.7 33.8 0.00 0.00 0.00 75 1017.8
20260830200804 27 211 19.3 29.0 0.00 0.00 0.00 74 1018.0
20260830194804 27 217 17.7 27.4 0.00 0.00 0.00 74 1018.3
20260830193304 27 228 8.0 32.2 0.00 0.00 0.00 74 1018.4
20260830191305 27 217 17.7 32.2 0.00 0.00 0.00 74 1018.6
20260830185805 27 220 16.1 32.2 0.00 0.00 0.00 74 1018.7
20260830185306 27 208 16.1 29.0 0.00 0.00 0.00 72 1018.8
20260830184304 27 206 16.1 29.0 0.00 0.00 0.00 72 1018.9
20260830183804 27 214 12.9 29.0 0.00 0.00 0.00 72 1018.9
20260830183304 27 209 16.1 29.0 0.00 0.00 0.00 72 1019.0
20260830182804 27 211 19.3 33.8 0.00 0.00 0.00 72 1019.1
20260830182306 27 209 16.1 32.2 0.00 0.00 0.00 72 1019.1
20260830181804 27 218 16.1 27.4 0.00 0.00 0.00 72 1019.3
20260830181304 27 210 12.9 22.5 0.00 0.00 0.00 72 1019.4
20260830180805 27 221 14.5 32.2 0.00 0.00 0.00 72 1019.5
20260830174805 27 209 16.1 32.2 0.00 0.00 0.00 71 1019.8
20260830174304 27 218 16.1 33.8 0.00 0.00 0.00 71 1019.8
20260830172804 27 209 19.3 29.0 0.00 0.00 0.00 71 1019.8
20260830170804 27 209 14.5 27.4 0.00 0.00 0.00 71 1020.3
20260830170305 27 232 16.1 25.7 0.00 0.00 0.00 71 1020.5
20260830165804 27 213 16.1 25.7 0.00 0.00 0.00 71 1020.6
20260830165306 27 217 14.5 22.5 0.00 0.00 0.00 71 1020.5
20260830163805 27 213 16.1 27.4 0.00 0.00 0.00 70 1020.4
20260830162804 27 222 14.5 25.7 0.00 0.00 0.00 71 1020.5
20260830162306 26 210 12.9 27.4 0.00 0.00 0.00 70 1020.5
20260830161804 27 209 11.3 24.1 0.00 0.00 0.00 70 1020.4
20260830160305 27 220 9.7 24.1 0.00 0.00 0.00 69 1020.5
20260830155306 26 211 9.7 25.7 0.00 0.00 0.00 70 1020.6
20260830153804 26 203 12.9 25.7 0.00 0.00 0.00 69 1020.5
20260830152803 26 211 11.3 24.1 0.00 0.00 0.00 69 1020.6
20260830152306 26 226 11.3 22.5 0.00 0.00 0.00 69 1020.6
20260830151804 26 214 11.3 24.1 0.00 0.00 0.00 70 1020.7
20260830151304 26 202 14.5 24.1 0.00 0.00 0.00 69 1020.8
20260830145306 26 231 8.0 19.3 0.00 0.00 0.00 71 1021.0
20260830144304 26 229 9.7 19.3 0.00 0.00 0.00 71 1021.0
20260830142804 26 249 8.0 16.1 0.00 0.00 0.00 72 1021.3
20260830142306 25 243 6.4 16.1 0.00 0.00 0.00 73 1021.4
20260830141304 26 252 4.8 14.5 0.00 0.00 0.00 74 1021.4
20260830140804 26 245 4.8 16.1 0.00 0.00 0.00 74 1021.4
20260830140304 25 251 3.2 11.3 0.00 0.00 0.00 75 1021.5
20260830134804 25 232 4.8 19.3 0.00 0.00 0.00 73 1021.5
20260830131804 24 221 8.0 16.1 0.00 0.00 0.00 77 1021.9
20260830131304 24 215 6.4 14.5 0.00 0.00 0.00 77 1021.9
20260830130305 24 225 6.4 11.3 0.00 0.00 0.00 78 1022.0
20260830125306 24 222 4.8 11.3 0.00 0.00 0.00 78 1022.1
20260830123304 23 227 4.8 9.7 0.00 0.00 0.00 80 1022.1
20260830122804 23 235 3.2 8.0 0.00 0.00 0.00 80 1022.2
20260830121804 23 240 3.2 8.0 0.00 0.00 0.00 80 1022.1
20260830120804 22 237 3.2 4.8 0.00 0.00 0.00 81 1022.3
20260830120304 22 271 0.0 3.2 0.00 0.00 0.00 82 1022.3
20260830115804 22 271 1.6 4.8 0.00 0.00 0.00 82 1022.3
20260830114304 21 271 0.0 3.2 0.00 0.00 0.00 83 1022.3
20260830113804 21 271 1.6 3.2 0.00 0.00 0.00 83 1022.3
20260830112306 21 273 1.6 4.8 0.00 0.00 0.00 83 1022.2
20260830111304 21 259 1.6 4.8 0.00 0.00 0.00 83 1022.3
20260830105306 21 254 3.2 4.8 0.00 0.00 0.00 83 1022.2
20260830102804 21 239 4.8 8.0 0.00 0.00 0.00 84 1022.1
20260830102306 21 240 3.2 4.8 0.00 0.00 0.00 84 1022.0
20260830101804 20 246 3.2 4.8 0.00 0.00 0.00 84 1022.0
20260830100804 20 247 3.2 8.0 0.00 0.00 0.00 84 1021.9
20260830095306 21 240 3.2 4.8 0.00 0.00 0.00 85 1022.0
20260830085804 19 250 1.6 4.8 0.00 0.00 0.00 87 1021.9
20260830085306 19 250 1.6 4.8 0.00 0.00 0.00 87 1021.9
20260830082306 20 250 0.0 3.2 0.00 0.00 0.00 87 1022.1
20260830080804 20 250 0.0 0.0 0.00 0.00 0.00 87 1022.0
20260830075805 20 250 0.0 0.0 0.00 0.00 0.00 87 1021.9